Cloud_Cover
100 100 100 100 100 100 100 100 100 100 100 100 100 100 100 100 100 100 100 100 100 100 100 99 100 100 84 67 86 44 32 5 8 5 48 97 23 5 4 0 0 0 0 0 0
100 100 100 100 100 100 98 100 100 100 100 100 100 100 100 100 100 100 100 100 100 100 100 100 100 84 82 67 92 93 52 9 58 25 16 9 54 5 5 0 0 0 0 0 0
100 100 100 100 100 100 100 100 100 100 100 100 100 100 100 100 100 100 100 100 100 100 100 100 100 100 74 57 72 97 31 9 76 5 11 5 5 5 5 5 0 0 0 0 0
100 100 100 100 100 100 100 100 100 100 100 100 100 100 100 100 100 100 100 100 100 100 100 100 100 100 77 66 34 61 15 6 55 6 6 5 5 5 5 5 0 0 0 0 0
100 100 100 100 100 100 100 100 100 100 100 100 100 100 100 100 89 100 100 100 100 100 100 100 100 100 100 63 88 38 8 70 100 64 5 5 5 5 5 10 5 1 0 0 0
100 100 100 100 100 100 100 100 100 100 100 100 100 100 100 100 83 100 100 100 100 100 100 100 100 100 93 70 63 39 17 95 100 100 65 5 5 21 5 48 5 5 5 0 0
100 100 100 100 100 100 100 100 100 100 100 100 100 100 96 100 99 100 100 100 100 100 100 100 100 100 100 53 91 82 30 94 75 72 100 65 16 96 5 5 5 5 5 5 3
58 100 100 100 100 100 100 100 100 100 100 100 100 100 53 48 100 100 100 100 100 100 100 100 100 100 100 72 100 99 9 94 78 100 59 39 92 10 5 6 24 26 53 18 5
100 100 100 100 100 100 100 100 100 100 100 100 100 100 100 100 100 100 100 100 100 100 100 100 100 100 100 100 100 100 87 56 100 100 100 39 100 18 5 5 5 7 98 75 28
12 96 93 100 100 100 100 100 100 100 100 100 100 100 98 100 100 94 100 100 100 100 100 100 100 100 100 100 100 100 83 33 83 97 90 76 90 5 5 5 5 8 42 43 10
95 97 76 100 100 100 100 100 100 100 100 100 100 100 100 100 100 100 100 100 100 100 100 100 100 100 100 100 100 100 95 92 95 8 16 19 67 18 5 5 5 5 5 5 5
4 96 100 100 100 100 100 100 100 100 100 100 100 100 100 100 100 100 100 100 100 100 100 100 100 100 100 100 100 100 100 100 100 58 100 11 79 76 6 44 36 35 31 5 5
1 58 100 100 100 100 100 100 100 100 100 100 100 100 100 100 100 100 100 100 100 100 100 100 100 100 100 100 100 100 100 100 100 100 100 96 25 100 54 31 96 100 100 57 6
0 4 98 100 100 100 100 100 100 100 100 100 100 93 100 100 100 100 100 100 100 100 100 93 100 100 100 100 100 100 100 100 100 100 100 100 100 100 100 100 100 100 100 88 5
0 2 89 96 100 100 100 100 100 100 100 100 96 60 98 100 100 100 100 100 84 100 100 100 100 100 100 100 100 100 100 100 100 100 100 100 60 100 100 100 100 100 100 100 100
5 36 96 100 100 100 100 100 100 100 100 100 100 63 88 91 95 100 100 100 100 100 100 86 99 94 100 100 100 100 100 100 100 100 74 100 88 93 100 100 100 100 100 100 100
100 5 99 76 100 100 100 100 100 100 100 100 100 99 36 88 100 100 100 100 100 100 100 100 100 100 100 100 100 100 100 100 100 100 70 100 100 85 100 100 100 100 100 100 100
89 50 61 100 100 100 100 100 100 100 100 98 60 100 100 100 100 100 100 100 100 100 100 100 100 100 100 100 100 100 100 100 100 100 100 100 59 42 80 100 100 100 100 100 100
100 94 55 100 100 100 100 100 100 100 100 81 100 100 100 100 100 100 72 90 100 100 100 100 100 100 100 100 100 100 100 100 100 85 19 16 9 33 100 99 76 100 100 100 100
100 100 100 100 100 100 100 97 100 100 100 100 100 99 100 100 99 100 88 53 98 99 100 100 100 100 100 100 100 100 100 100 100 100 100 76 39 58 100 100 100 100 100 100 100
100 98 96 53 86 100 100 100 100 81 100 100 100 100 100 100 100 100 57 100 100 100 100 100 100 100 100 100 100 100 100 100 100 100 100 44 60 100 100 100 65 33 90 100 100
31 95 98 100 100 100 100 100 17 64 100 100 100 100 93 97 100 100 100 100 100 100 100 100 100 100 100 100 100 100 100 100 100 100 100 99 17 100 100 89 22 77 98 100 92
100 100 100 57 96 90 97 8 5 98 100 100 100 100 100 100 97 59 100 100 100 100 100 100 100 100 100 100 100 100 100 100 100 100 100 99 26 100 8 5 5 5 5 5 87
95 87 100 100 100 84 100 100 13 5 98 9 35 100 100 100 86 100 100 100 100 100 100 100 100 100 50 93 100 100 100 100 100 100 81 58 15 100 93 95 58 5 5 5 5
94 92 84 79 100 100 100 100 99 5 6 38 100 100 100 100 100 100 100 100 100 100 100 100 100 100 100 100 100 100 100 100 100 100 100 100 93 98 100 88 30 61 36 5 5
100 22 86 9 18 7 78 72 100 100 51 100 100 100 100 96 100 100 100 100 100 100 100 100 100 100 100 100 100 100 100 100 100 100 100 100 100 100 100 100 46 8 58 71 6
66 37 57 73 58 30 44 4 88 100 100 32 100 100 99 91 60 100 100 100 100 100 100 100 100 100 89 100 100 100 73 100 100 100 100 100 100 100 100 100 100 100 100 51 8